Regional Weather Roundup
Issued by NWS Northern Indiana

Home | Current Version | Previous Version | Text Only | Print | Product List | Glossary Off
Versions: 1 2 3 4 5 6 7 8 9 10 11 12 13 14 15 16 17 18 19 20 21 22 23 24 25 26 27 28 29 30 31 32 33 34 35 36 37 38 39 40 41 42 43 44 45 46 47 48 49 50

000
ASUS43 KIWX 222010
RWRIWX

KIWX WEATHER ROUNDUP
NATIONAL WEATHER SERVICE NORTHERN INDIANA
400 PM EDT SUN OCT 22 2017

NOTE: "FAIR" INDICATES FEW OR NO CLOUDS BELOW 12,000 FEET WITH NO
SIGNIFICANT WEATHER AND/OR OBSTRUCTIONS TO VISIBILITY.

* THESE STATIONS ARE NOT UNDER NWS QUALITY CONTROL. THEY ALSO MAY NOT
  REPORT WEATHER SUCH AS PRECIPITATION OR FOG.

INZ001>027-222100-
NORTHERN INDIANA

CITY           SKY/WX    TMP DP  RH WIND       PRES   REMARKS
GARY*          CLOUDY    72  61  68 S12G23    29.94R
VALPARAISO     CLOUDY    74  60  61 S20G26    29.96S
MICHIGAN CITY* CLOUDY    72  59  64 S7        29.96R
LAPORTE*       CLOUDY    72  58  62 S13G18    29.97S
KNOX*          CLOUDY    73  59  60 S12       29.97R
SOUTH BEND     CLOUDY    73  60  63 S15       29.97S
ELKHART*       CLOUDY    73  57  56 S10G23    29.98
GOSHEN         CLOUDY    75  56  51 S20G25    29.98F
MONTICELLO*    CLOUDY    75  57  53 S17G24    29.97S
LOGANSPORT*    CLOUDY    75  59  57 S14       29.99S
WARSAW*        PTSUNNY   73  59  60 S6        30.00S
AUBURN*        MOSUNNY   77  54  44 S3        30.03S
FORT WAYNE     PTSUNNY   79  57  46 S18G25    30.02F
HUNTINGTON*    SUNNY     76  56  48 S14       30.01F

$$
INZ028>050-222100-
CENTRAL INDIANA

CITY           SKY/WX    TMP DP  RH WIND       PRES   REMARKS
LAFAYETTE      CLOUDY    75  59  57 S14G22    29.97S
KOKOMO*        PTSUNNY   76  59  55 S17G24    30.02R
MUNCIE*        SUNNY     79  56  45 S13G24    30.03F
INDIANAPOLIS   PTSUNNY   76  58  53 S23       30.02S

$$
MIZ043>046-050>051-056>058-064>065-071>073-077>080-222100-
SOUTHWEST LOWER MICHIGAN

CITY           SKY/WX    TMP DP  RH WIND       PRES   REMARKS
BATTLE CREEK   CLOUDY    74  59  59 S13       29.99F
BENTON HARBOR  CLOUDY    73  57  57 S17G30    29.95S
COLDWATER*     PTSUNNY   76  54  46 S14G23    30.01S
HILLSDALE*     CLOUDY    73  54  49 S9G16     30.03F
HOLLAND        CLOUDY    70  61  73 S9        29.94F
GRAND RAPIDS   LGT RAIN  74  61  63 S12       29.95F
KALAMAZOO      CLOUDY    73  56  54 S17G25    29.97F
STURGIS*       CLOUDY    74  59  58 S15       29.99S
THREE RIVERS*  FAIR      75  58  55 S16       29.98F

$$
OHZ001>008-015>018-024>025-222100-
NORTHWEST OHIO

CITY           SKY/WX    TMP DP  RH WIND       PRES   REMARKS
WAUSEON*       FAIR      79  55  44 S20       30.04F
DEFIANCE       SUNNY     78  54  43 S15G23    30.03F
FINDLAY        LGT RAIN  79  52  38 S18G25    30.07F
TOLEDO EXPRESS SUNNY     79  58  48 S13G23    30.05F
TOLEDO METCALF SUNNY     79  54  41 S21G29    30.06F
LIMA           SUNNY     76  55  48 SW15G24   30.08F

$$
AND FOR LAKE MICHIGAN COASTAL AND OPEN LAKE BUOY OBSERVATIONS

STATION/POSITION TEMP    WIND        PRES    VSBY  WAVE
                 AIR SEA DIR/SP/G                  HT/PER
                 (F)     (DEG/KT/KT) (MB)    (MI)  (FT/S)
CALUMET HARBOR    71     170/  9/ 18 1012.7R
MICHIGAN CITY     71     190/ 23/ 26   N/A
BURNS HARBOR      71     190/ 16/ 22 1014.2R
SAINT JOSEPH      72     200/ 11/ 22 1014.6
SOUTH LAKE BUOY   63 60  190/ 12/ 14 1013.1R         3/ 5
4 MI NW BRIDGMAN  67 60  200/ 14/ 19 1014.3          3/ 4
MICHIGAN CITY     68 58  200/ 16/ 25   N/A           2/ 3

$$
&&




USA.gov is the U.S. government's official web portal to all federal, state and local government web resources and services.